#timestamp,LO_Frequency,Hit,StdDev 
1512558015.7,286046991.5,N
1512558035.5,286046986.9,Y
1512558055.4,286046992.5,P
1512558075.2,286046988.5,P
1512558095.0,286046991.1,P
1512558095.9,286046991.1,Y
1512558115.8,286047000.8,P
1512558135.6,286046998.7,N
1512558155.4,286046996.5,N
1512558175.3,286046997.8,N
1512558195.1,286046995.0,N
1512558196.0,286046995.0,N
1512558215.8,286046999.0,N
1512558235.7,286046997.2,N
1512558255.5,286046991.8,Y
1512558275.3,286046999.5,P
1512558295.2,286046999.8,N
1512558315.9,286047004.0,P
1512558335.7,286047000.2,N
1512558355.6,286047000.1,N
1512558375.4,286047000.0,N
1512558395.2,286046998.1,N
1512558415.0,286046995.0,N
1512558415.9,286046995.0,N
1512558435.8,286046993.9,N
1512558455.6,286046990.8,Y
1512558475.5,286046992.7,P
1512558495.3,286046993.3,N
1512558515.1,286046993.2,N
1512558535.9,286046992.9,Y
1512558555.7,286047001.2,P
1512558575.5,286046999.3,N
1512558595.3,286046996.7,N
1512558615.2,286046996.9,N
1512558635.0,286046998.7,N
1512558635.9,286046998.7,N
1512558655.7,286046996.7,N
1512558675.6,286046998.9,N
1512558695.4,286046997.1,N
1512558715.2,286046995.6,N
1512558735.1,286046995.7,N
1512558736.0,286046995.7,N
1512558755.8,286046996.5,N
1512558775.6,286046996.1,N
1512558795.5,286046999.4,N
1512558815.3,286046999.4,N
1512558835.1,286046999.0,N
1512558855.9,286047001.2,N
1512558875.7,286046996.5,N
1512558895.5,286046996.1,N
1512558915.4,286046997.5,N
1512558935.2,286046995.7,N
1512558955.0,286046995.2,N
1512558955.9,286046995.2,N
1512558975.7,286046996.8,N
1512558995.6,286046996.9,N
1512559015.4,286046996.4,N
1512559035.2,286046992.0,Y
1512559055.1,286046990.4,P
1512559056.0,286046990.4,N
1512559075.8,286046989.8,P
1512559095.7,286046988.0,Y
1512559115.5,286047001.1,P
1512559135.3,286046999.3,N
1512559155.1,286047002.4,N
1512559175.9,286047002.0,N
1512559195.7,286046999.0,N
1512559215.5,286046997.8,N
1512559235.4,286046999.4,N
1512559255.2,286046998.5,N
1512559275.0,286046999.0,N
1512559275.9,286046999.0,N
1512559295.8,286046999.8,N
1512559315.6,286047003.0,N
1512559335.4,286047003.5,N
1512559355.3,286047003.2,N
1512559375.1,286047002.2,N
1512559376.0,286047002.2,N
1512559395.8,286047000.5,N
1512559415.6,286047001.4,N
1512559435.5,286047007.2,N
1512559455.3,286047007.5,N
1512559475.1,286047003.9,N
1512559495.9,286047002.6,N
1512559515.7,286047002.6,N
1512559535.5,286047002.8,N
1512559555.4,286047004.9,N
1512559575.2,286047007.9,N
1512559595.0,286047012.4,Y
1512559595.9,286047012.4,P
1512559615.8,286047009.4,N
1512559635.6,286047010.4,N
1512559655.4,286047010.2,N
1512559675.3,286047008.0,N
1512559695.1,286047004.6,N
1512559696.0,286047004.6,N
1512559715.8,286047008.6,N
1512559735.7,286047011.8,Y
1512559755.5,286047009.0,P
1512559775.3,286047012.4,P
1512559795.2,286047013.1,P
1512559815.9,286047014.2,Y
1512559835.7,286047004.7,P
1512559855.6,286047005.6,N
1512559875.4,286047007.3,N
1512559895.2,286047000.4,N
1512559915.1,286046995.6,N
1512559916.0,286046995.6,N
1512559935.8,286046997.4,N
1512559955.6,286046999.4,N
1512559975.4,286046996.5,N
1512559995.3,286047004.4,N
1512560015.1,286047003.7,N
1512560035.8,286047003.1,N
1512560055.7,286047005.7,N
1512560075.5,286047006.5,N
1512560095.3,286047004.5,N
1512560115.2,286047006.9,N
1512560135.9,286047009.2,N
1512560155.7,286047010.2,N
1512560175.6,286047004.5,N
1512560195.4,286047005.6,N
1512560215.2,286047003.8,N
1512560235.0,286047004.2,N
1512560236.0,286047004.2,N
1512560255.8,286047005.3,N
1512560275.6,286047004.5,N
1512560295.4,286047007.6,N
1512560315.3,286047007.3,N
1512560335.1,286047001.3,N
1512560355.8,286047001.9,N
1512560375.7,286047005.5,N
1512560395.5,286047006.9,N
1512560415.3,286047008.4,N
1512560435.2,286047011.3,N
1512560455.9,286047012.0,N
1512560475.7,286047007.4,N
1512560495.6,286047008.0,N
1512560515.4,286047004.0,N
1512560535.2,286047000.5,N
1512560555.0,286046998.0,N
1512560556.0,286046998.0,N
1512560575.8,286046990.7,N
1512560595.6,286046990.5,N
1512560615.4,286046990.7,N
1512560635.3,286046988.9,N
1512560655.1,286046987.1,N
1512560675.8,286046987.1,N
1512560695.7,286046987.5,N
1512560715.5,286046990.4,N
1512560735.3,286046990.6,N
1512560755.2,286046993.2,N
1512560775.9,286046995.5,N
1512560795.7,286046999.9,N
1512560815.6,286047000.9,N
1512560835.4,286046999.8,N
1512560855.2,286046996.9,N
1512560875.1,286046999.3,N
1512560876.0,286046999.3,N
1512560895.8,286047002.1,N
1512560915.6,286047004.4,N
1512560935.5,286047004.2,N
1512560955.3,286047004.0,N
1512560975.1,286047003.0,N
1512560995.8,286047001.7,N
1512561015.7,286047003.2,N
1512561035.5,286047007.3,N
1512561055.3,286047008.2,N
1512561075.2,286047009.7,N
1512561095.9,286047011.9,N
1512561115.7,286047012.4,N
1512561135.6,286047010.0,N
1512561155.4,286047007.9,N
1512561175.2,286047008.2,N
1512561195.1,286047007.9,N
1512561196.0,286047007.9,N
1512561215.8,286047008.9,N
1512561235.6,286047008.5,N
1512561255.4,286047006.6,N
1512561275.3,286047008.8,N
1512561295.1,286047009.7,N
1512561315.8,286047009.6,N
1512561335.7,286047013.8,Y
1512561355.5,286047009.0,P
1512561375.3,286047007.3,P
1512561395.2,286047008.2,P
1512561415.0,286047003.6,N
1512561415.9,286047003.6,N
1512561435.7,286047002.4,N
1512561455.6,286046998.2,N
1512561475.4,286047002.6,N
1512561495.2,286047004.4,N
1512561515.1,286047002.0,N
1512561516.0,286047002.0,N
1512561535.8,286046999.8,N
1512561555.6,286046999.1,N
1512561575.5,286046998.0,N
1512561595.3,286046999.3,N
